Weather History for KHSP - August, 2013

Change the Weather History Date:

Thursday, August 29, 2013

  Actual Average (KLWB) Record (KLWB)
Temperature  
Mean Temperature 70 °F 68 °F  
Max Temperature 75 °F 80 °F 90 °F (2007)
Min Temperature 64 °F 55 °F 38 °F (1986)
Degree Days  
Heating Degree Days 0    
Month to date heating degree days  
Since 1 June heating degree days  
Since 1 July heating degree days  
Cooling Degree Days 4    
Month to date cooling degree days  
Year to date cooling degree days  
Since 1 June cooling degree days  
Growing Degree Days 20 (Base 50)    
Moisture  
Dew Point 66 °F    
Average Humidity 92    
Maximum Humidity 100    
Minimum Humidity 73    
Precipitation  
Precipitation 0.00 in 0.09 in - ()
Month to date precipitation 2.98  
Year to date precipitation 27.91  
Snow  
Snow 0.00 in - - ()
Month to date snowfall  
Since 1 June snowfall  
Since 1 July snowfall  
Snow Depth -    
Sea Level Pressure  
Sea Level Pressure 30.15 in    
Wind  
Wind Speed 8 mph (ENE)    
Max Wind Speed 15 mph    
Max Gust Speed 20 mph    
Visibility 5 miles    
Events Fog , Rain    
T = Trace of Precipitation, MM = Missing Value Source: NWS Daily Summary

Daily Weather History Graph

Daily Weather History Graph

Search for Another Location

Airport or City:

Trip Planner

Search our weather history database for the weather conditions in past years. The results will help you decide how hot, cold, wet, or windy it might be!

Date:

Astronomy

Aug. 29, 2013 Rise Set
Actual Time 6:46 AM EDT 7:52 PM EDT
Civil Twilight 6:19 AM EDT 8:19 PM EDT
Nautical Twilight 5:47 AM EDT 8:52 PM EDT
Astronomical Twilight 5:13 AM EDT 9:25 PM EDT
Moon 12:40 AM EDT (8/29) 3:17 PM EDT (8/29)
Length of Visible Light 14h 00m
Length of Day
13h 05m
Last Quarter, 38% of the Moon is Illuminated
Aug 29
Last Quarter
Sep 5
New
Sep 12
First Quarter
Sep 19
Full
Sep 26
Last Quarter

Hourly Weather History & Observations

Time (EDT) Temp. Dew Point Humidity Pressure Visibility Wind Dir Wind Speed Gust Speed Precip Events Conditions
12:15 AM 66.2 °F 66.2 °F 100% 30.06 in 0.2 mi West 15.0 mph 19.6 mph N/A Rain Rain
12:35 AM 66.2 °F 66.2 °F 100% 30.06 in 0.2 mi West 13.8 mph - N/A Rain Rain
12:55 AM 66.2 °F 66.2 °F 100% 30.06 in 0.2 mi West 11.5 mph - N/A Rain Light Rain
1:15 AM 66.2 °F 66.2 °F 100% 30.07 in 0.2 mi West 12.7 mph - N/A Rain Light Rain
1:35 AM 66.2 °F 66.2 °F 100% 30.07 in 0.2 mi WNW 8.1 mph - N/A Rain Light Rain
1:55 AM 66.2 °F 66.2 °F 100% 30.06 in 0.2 mi West 9.2 mph - N/A Rain Light Rain
2:15 AM 66.2 °F 66.2 °F 100% 30.07 in 0.2 mi NW 6.9 mph - N/A Rain Light Rain
2:35 AM 66.2 °F 66.2 °F 100% 30.07 in 2.5 mi WNW 6.9 mph - N/A   Overcast
2:55 AM 66.2 °F 66.2 °F 100% 30.07 in 4.0 mi WNW 11.5 mph - N/A Rain Rain
3:15 AM 66.2 °F 66.2 °F 100% 30.07 in 4.0 mi WNW 10.4 mph 16.1 mph N/A   Light Drizzle
3:35 AM 66.2 °F 66.2 °F 100% 30.08 in 4.0 mi WNW 9.2 mph - N/A   Mostly Cloudy
3:55 AM 66.2 °F 66.2 °F 100% 30.07 in 3.0 mi WNW 6.9 mph - N/A   Scattered Clouds
4:15 AM 66.2 °F 66.2 °F 100% 30.08 in 3.0 mi WNW 9.2 mph - N/A   Mostly Cloudy
4:35 AM 66.2 °F 66.2 °F 100% 30.08 in 5.0 mi WNW 9.2 mph - N/A   Overcast
4:55 AM 66.2 °F 66.2 °F 100% 30.09 in 7.0 mi WNW 9.2 mph - N/A   Overcast
5:15 AM 66.2 °F 66.2 °F 100% 30.09 in 5.0 mi WNW 8.1 mph - N/A   Overcast
5:35 AM 66.2 °F 66.2 °F 100% 30.09 in 7.0 mi NW 8.1 mph - N/A   Overcast
5:55 AM 66.2 °F 66.2 °F 100% 30.10 in 4.0 mi WNW 6.9 mph - N/A   Overcast
6:15 AM 66.2 °F 66.2 °F 100% 30.10 in 1.5 mi WNW 6.9 mph - N/A   Overcast
6:35 AM 66.2 °F 66.2 °F 100% 30.11 in 1.8 mi Calm Calm - N/A   Overcast
6:55 AM 66.2 °F 66.2 °F 100% 30.12 in 0.2 mi NNE 3.5 mph - N/A Fog Fog
7:15 AM 64.4 °F 64.4 °F 100% 30.13 in 0.2 mi NNE 6.9 mph - N/A Fog Fog
7:35 AM 64.4 °F 64.4 °F 100% 30.14 in 5.0 mi NNE 5.8 mph - N/A   Overcast
7:55 AM 64.4 °F 64.4 °F 100% 30.14 in 7.0 mi ENE 5.8 mph - N/A   Overcast
8:15 AM 64.4 °F 64.4 °F 100% 30.15 in 5.0 mi ENE 5.8 mph - N/A   Overcast
8:35 AM 64.4 °F 64.4 °F 100% 30.15 in 5.0 mi Calm Calm - N/A   Overcast
8:55 AM 66.2 °F 64.4 °F 94% 30.15 in 10.0 mi ENE 4.6 mph - N/A   Overcast
9:15 AM 66.2 °F 64.4 °F 94% 30.16 in 10.0 mi ENE 4.6 mph - N/A   Overcast
9:35 AM 68.0 °F 64.4 °F 88% 30.16 in 10.0 mi ENE 3.5 mph - N/A   Mostly Cloudy
9:55 AM 68.0 °F 64.4 °F 88% 30.17 in 10.0 mi ENE 6.9 mph - N/A   Mostly Cloudy
10:15 AM 66.2 °F 66.2 °F 100% 30.17 in 10.0 mi ENE 5.8 mph - N/A   Mostly Cloudy
10:35 AM 69.8 °F 66.2 °F 88% 30.18 in 10.0 mi ENE 4.6 mph - N/A   Mostly Cloudy
10:55 AM 69.8 °F 66.2 °F 88% 30.18 in 10.0 mi ENE 6.9 mph - N/A   Mostly Cloudy
11:15 AM 69.8 °F 66.2 °F 88% 30.18 in 10.0 mi ENE 6.9 mph - N/A   Scattered Clouds
11:35 AM 69.8 °F 66.2 °F 88% 30.18 in 10.0 mi NE 3.5 mph - N/A   Mostly Cloudy
11:55 AM 69.8 °F 66.2 °F 88% 30.19 in 10.0 mi ENE 3.5 mph - N/A   Scattered Clouds
12:15 PM 71.6 °F 66.2 °F 83% 30.18 in 10.0 mi ENE 4.6 mph - N/A   Scattered Clouds
12:35 PM 71.6 °F 66.2 °F 83% 30.18 in 10.0 mi East 4.6 mph - N/A   Scattered Clouds
12:55 PM 71.6 °F 66.2 °F 83% 30.19 in 7.0 mi ENE 5.8 mph - N/A   Mostly Cloudy
1:15 PM 71.6 °F 68.0 °F 88% 30.18 in 7.0 mi ENE 5.8 mph - N/A   Scattered Clouds
1:35 PM 73.4 °F 68.0 °F 83% 30.18 in 5.0 mi ENE 6.9 mph - N/A   Haze
1:55 PM 71.6 °F 66.2 °F 83% 30.18 in 10.0 mi East 6.9 mph - N/A   Scattered Clouds
2:15 PM 71.6 °F 66.2 °F 83% 30.18 in 10.0 mi NE 4.6 mph - N/A   Mostly Cloudy
2:35 PM 73.4 °F 66.2 °F 78% 30.18 in 10.0 mi East 5.8 mph - N/A   Mostly Cloudy
2:55 PM 73.4 °F 66.2 °F 78% 30.18 in 10.0 mi East 5.8 mph - N/A   Scattered Clouds
3:15 PM 73.4 °F 66.2 °F 78% 30.18 in 5.0 mi East 5.8 mph - N/A   Haze
3:17 PM 73.4 °F 66.2 °F 78% 30.18 in 5.0 mi East 5.8 mph - N/A   Haze
3:35 PM 75.2 °F 66.2 °F 73% 30.18 in 4.0 mi ENE 8.1 mph - N/A   Haze
3:55 PM 73.4 °F 66.2 °F 78% 30.18 in 4.0 mi ENE 9.2 mph - N/A   Haze
4:15 PM 75.2 °F 68.0 °F 78% 30.18 in 4.0 mi ENE 5.8 mph - N/A   Haze
4:35 PM 71.6 °F 66.2 °F 83% 30.18 in 4.0 mi East 5.8 mph - N/A   Haze
4:55 PM 73.4 °F 66.2 °F 78% 30.17 in 4.0 mi ESE 10.4 mph - N/A   Haze
5:15 PM 73.4 °F 66.2 °F 78% 30.18 in 4.0 mi East 4.6 mph - N/A   Haze
5:35 PM 73.4 °F 66.2 °F 78% 30.18 in 3.0 mi East 6.9 mph - N/A   Haze
5:55 PM 71.6 °F 66.2 °F 83% 30.18 in 5.0 mi East 6.9 mph - N/A   Haze
6:15 PM 71.6 °F 66.2 °F 83% 30.18 in 4.0 mi East 8.1 mph - N/A   Scattered Clouds
6:35 PM 69.8 °F 64.4 °F 83% 30.19 in 4.0 mi East 6.9 mph - N/A   Haze
6:55 PM 69.8 °F 64.4 °F 83% 30.18 in 2.5 mi East 4.6 mph - N/A   Scattered Clouds
7:15 PM 66.2 °F 64.4 °F 94% 30.19 in 3.0 mi ESE 6.9 mph - N/A   Clear
7:35 PM 66.2 °F 64.4 °F 94% 30.19 in 5.0 mi ESE 8.1 mph - N/A   Clear
7:55 PM 66.2 °F 64.4 °F 94% 30.20 in 5.0 mi East 6.9 mph - N/A   Clear
8:15 PM 66.2 °F 64.4 °F 94% 30.20 in 3.0 mi East 8.1 mph - N/A   Clear
8:35 PM 66.2 °F 64.4 °F 94% 30.21 in 4.0 mi East 6.9 mph - N/A   Clear
8:55 PM 66.2 °F 64.4 °F 94% 30.21 in 3.0 mi East 9.2 mph - N/A   Mostly Cloudy
9:15 PM 66.2 °F 64.4 °F 94% 30.22 in 4.0 mi East 5.8 mph - N/A   Overcast
9:35 PM 66.2 °F 64.4 °F 94% 30.22 in 5.0 mi East 5.8 mph - N/A   Overcast
9:55 PM 66.2 °F 64.4 °F 94% 30.22 in 5.0 mi East 6.9 mph - N/A   Overcast
10:15 PM 64.4 °F 64.4 °F 100% 30.22 in 4.0 mi ESE 6.9 mph - N/A   Mostly Cloudy
10:35 PM 64.4 °F 64.4 °F 100% 30.23 in 4.0 mi East 6.9 mph - N/A   Overcast
10:55 PM 64.4 °F 64.4 °F 100% 30.22 in 2.5 mi East 5.8 mph - N/A   Overcast
11:15 PM 64.4 °F 64.4 °F 100% 30.22 in 0.5 mi East 6.9 mph - N/A Fog Fog
11:35 PM 64.4 °F 64.4 °F 100% 30.22 in 0.2 mi ESE 6.9 mph - N/A Fog Fog
11:55 PM 64.4 °F 64.4 °F 100% 30.22 in 0.2 mi East 6.9 mph - N/A Fog Fog